When you browse on this site, cookies collect data to enhance your experience and personalize the content and advertising you see.
Visit our Privacy Policy to learn more. By continuing to use the site, you agree to this use of cookies and data.
  • In Switzerland
  • List of Countries
  • For 7 days
  • Water Temperature
  • Satellite Maps
  • Weather Map
  • Weather Widgets
  • user-avatar
    Login

    Hourly Weather Perth

    Today, 25 April, Thursday

    Time Temperature Precipitation Wind Pressure Humidity
    00:00 +21°C° 0 mm 4 mps 767 mmHg 42%
    01:00 +21°C° 0 mm 4 mps 767 mmHg 43%
    02:00 +20°C° 0 mm 5 mps 767 mmHg 46%
    03:00 +20°C° 0 mm 5 mps 767 mmHg 47%
    04:00 +20°C° 0 mm 5 mps 767 mmHg 48%
    05:00 +19°C° 0 mm 5 mps 767 mmHg 49%
    06:00 +20°C° 0 mm 5 mps 767 mmHg 48%
    07:00 +20°C° 0 mm 5 mps 767 mmHg 48%
    08:00 +20°C° 0 mm 4 mps 768 mmHg 50%
    09:00 +22°C° 0 mm 4 mps 767 mmHg 44%
    10:00 +25°C° 0 mm 4 mps 767 mmHg 38%
    11:00 +27°C° 0 mm 4 mps 767 mmHg 33%
    12:00 +28°C° 0 mm 3 mps 766 mmHg 31%
    13:00 +29°C° 0 mm 3 mps 766 mmHg 29%
    14:00 +30°C° 0 mm 3 mps 766 mmHg 27%
    15:00 +29°C° 0 mm 3 mps 766 mmHg 29%
    16:00 +29°C° 0 mm 3 mps 765 mmHg 30%
    17:00 +28°C° 0 mm 3 mps 765 mmHg 31%
    18:00 +27°C° 0 mm 3 mps 766 mmHg 33%
    19:00 +25°C° 0 mm 3 mps 766 mmHg 35%
    20:00 +24°C° 0 mm 3 mps 766 mmHg 37%
    21:00 +23°C° 0 mm 4 mps 766 mmHg 37%
    22:00 +22°C° 0 mm 4 mps 766 mmHg 38%
    23:00 +22°C° 0 mm 5 mps 767 mmHg 38%

    Tomorrow, 26 April, Friday

    Time Temperature Precipitation Wind Pressure Humidity
    00:00 +22°C° 0 mm 5 mps 767 mmHg 40%
    01:00 +21°C° 0 mm 5 mps 767 mmHg 42%
    02:00 +21°C° 0 mm 5 mps 767 mmHg 44%
    03:00 +20°C° 0 mm 5 mps 767 mmHg 46%
    04:00 +20°C° 0 mm 5 mps 767 mmHg 47%
    05:00 +19°C° 0 mm 6 mps 767 mmHg 49%
    06:00 +20°C° 0 mm 6 mps 767 mmHg 50%
    07:00 +20°C° 0 mm 6 mps 768 mmHg 51%
    08:00 +20°C° 0 mm 6 mps 768 mmHg 52%
    09:00 +22°C° 0 mm 6 mps 768 mmHg 46%
    10:00 +25°C° 0 mm 5 mps 767 mmHg 40%
    11:00 +27°C° 0 mm 5 mps 767 mmHg 34%
    12:00 +28°C° 0 mm 5 mps 767 mmHg 32%
    13:00 +29°C° 0 mm 5 mps 766 mmHg 30%
    14:00 +30°C° 0 mm 4 mps 766 mmHg 27%
    15:00 +29°C° 0 mm 4 mps 766 mmHg 28%
    16:00 +29°C° 0 mm 4 mps 765 mmHg 29%
    17:00 +28°C° 0 mm 3 mps 765 mmHg 30%
    18:00 +27°C° 0 mm 3 mps 766 mmHg 33%
    19:00 +25°C° 0 mm 3 mps 766 mmHg 35%
    20:00 +24°C° 0 mm 3 mps 766 mmHg 37%
    21:00 +22°C° 0 mm 4 mps 766 mmHg 37%
    22:00 +22°C° 0 mm 4 mps 766 mmHg 37%
    23:00 +22°C° 0 mm 4 mps 766 mmHg 37%

    Day after tomorrow, 27 April, Saturday

    Time Temperature Precipitation Wind Pressure Humidity
    00:00 +22°C° 0 mm 4 mps 766 mmHg 38%
    01:00 +21°C° 0 mm 4 mps 766 mmHg 39%
    02:00 +21°C° 0 mm 4 mps 766 mmHg 40%
    03:00 +21°C° 0 mm 4 mps 766 mmHg 41%
    04:00 +20°C° 0 mm 4 mps 766 mmHg 42%
    05:00 +20°C° 0 mm 4 mps 767 mmHg 43%
    06:00 +20°C° 0 mm 4 mps 767 mmHg 43%
    07:00 +20°C° 0 mm 5 mps 767 mmHg 44%
    08:00 +20°C° 0 mm 5 mps 767 mmHg 44%
    09:00 +22°C° 0 mm 5 mps 767 mmHg 40%
    10:00 +25°C° 0 mm 5 mps 767 mmHg 36%
    11:00 +27°C° 0 mm 5 mps 767 mmHg 32%
    12:00 +28°C° 0 mm 4 mps 766 mmHg 30%
    13:00 +29°C° 0 mm 4 mps 766 mmHg 28%
    14:00 +29°C° 0 mm 4 mps 765 mmHg 26%
    15:00 +29°C° 0 mm 3 mps 765 mmHg 27%
    16:00 +28°C° 0 mm 3 mps 764 mmHg 28%
    17:00 +28°C° 0 mm 2 mps 764 mmHg 29%
    18:00 +26°C° 0 mm 3 mps 765 mmHg 31%
    19:00 +25°C° 0 mm 3 mps 765 mmHg 33%
    20:00 +22°C° 0 mm 3 mps 765 mmHg 34%
    21:00 +22°C° 0 mm 3 mps 765 mmHg 34%
    22:00 +21°C° 0 mm 3 mps 765 mmHg 34%
    23:00 +21°C° 0 mm 3 mps 765 mmHg 34%

    28 April, Sunday

    Time Temperature Precipitation Wind Pressure Humidity
    00:00 +21°C° 0 mm 3 mps 765 mmHg 35%
    01:00 +20°C° 0 mm 4 mps 765 mmHg 35%
    02:00 +20°C° 0 mm 4 mps 764 mmHg 36%
    03:00 +20°C° 0 mm 4 mps 764 mmHg 37%
    04:00 +20°C° 0 mm 4 mps 764 mmHg 38%
    05:00 +20°C° 0 mm 4 mps 764 mmHg 39%
    06:00 +20°C° 0 mm 5 mps 764 mmHg 39%
    07:00 +21°C° 0 mm 5 mps 764 mmHg 39%
    08:00 +21°C° 0 mm 5 mps 764 mmHg 39%
    09:00 +23°C° 0 mm 5 mps 764 mmHg 36%
    10:00 +26°C° 0 mm 5 mps 764 mmHg 32%
    11:00 +29°C° 0 mm 5 mps 764 mmHg 29%
    12:00 +29°C° 0 mm 4 mps 763 mmHg 28%
    13:00 +30°C° 0 mm 4 mps 762 mmHg 27%
    14:00 +31°C° 0 mm 3 mps 761 mmHg 25%
    15:00 +30°C° 0 mm 3 mps 761 mmHg 28%
    16:00 +29°C° 0 mm 3 mps 761 mmHg 32%
    17:00 +28°C° 0 mm 3 mps 761 mmHg 35%
    18:00 +26°C° 0 mm 2 mps 761 mmHg 42%
    19:00 +25°C° 0 mm 1 mps 761 mmHg 49%
    20:00 +23°C° 0 mm 1 mps 761 mmHg 56%
    21:00 +23°C° 0 mm 1 mps 761 mmHg 58%
    22:00 +22°C° 0 mm 1 mps 761 mmHg 59%
    23:00 +22°C° 0 mm 1 mps 762 mmHg 61%

    29 April, Monday

    Time Temperature Precipitation Wind Pressure Humidity
    00:00 +22°C° 0 mm 1 mps 761 mmHg 63%
    01:00 +22°C° 0 mm 1 mps 761 mmHg 65%
    02:00 +21°C° 0 mm 1 mps 761 mmHg 67%
    03:00 +21°C° 0 mm 1 mps 761 mmHg 69%
    04:00 +21°C° 0 mm 1 mps 761 mmHg 71%
    05:00 +21°C° 0 mm 1 mps 761 mmHg 73%
    06:00 +22°C° 0 mm 1 mps 761 mmHg 74%
    07:00 +22°C° 0 mm 1 mps 762 mmHg 75%
    08:00 +22°C° 0 mm 1 mps 762 mmHg 76%
    09:00 +23°C° 0 mm 2 mps 762 mmHg 74%
    10:00 +24°C° 0 mm 2 mps 763 mmHg 72%
    11:00 +25°C° 0 mm 3 mps 763 mmHg 69%
    12:00 +25°C° 0 mm 4 mps 762 mmHg 65%
    13:00 +25°C° 0 mm 4 mps 762 mmHg 61%
    14:00 +26°C° 0 mm 5 mps 762 mmHg 57%
    15:00 +25°C° 0 mm 5 mps 762 mmHg 56%
    16:00 +23°C° 0 mm 5 mps 763 mmHg 56%
    17:00 +23°C° 0 mm 5 mps 763 mmHg 55%
    18:00 +22°C° 0 mm 4 mps 764 mmHg 58%
    19:00 +21°C° 0 mm 4 mps 764 mmHg 62%
    20:00 +20°C° 0 mm 4 mps 765 mmHg 65%
    21:00 +19°C° 0 mm 4 mps 765 mmHg 65%
    22:00 +18°C° 0 mm 4 mps 765 mmHg 64%
    23:00 +17°C° 0 mm 5 mps 766 mmHg 63%

    30 April, Tuesday

    Time Temperature Precipitation Wind Pressure Humidity
    00:00 +16°C° 0 mm 5 mps 766 mmHg 63%
    01:00 +16°C° 0 mm 5 mps 766 mmHg 64%
    02:00 +15°C° 0 mm 5 mps 766 mmHg 64%
    03:00 +15°C° 0 mm 5 mps 766 mmHg 65%
    04:00 +14°C° 0 mm 6 mps 766 mmHg 65%
    05:00 +14°C° 0 mm 6 mps 767 mmHg 66%
    06:00 +14°C° 0 mm 6 mps 767 mmHg 65%
    07:00 +14°C° 0 mm 6 mps 767 mmHg 65%
    08:00 +14°C° 0 mm 6 mps 768 mmHg 64%
    09:00 +16°C° 0 mm 6 mps 768 mmHg 58%
    10:00 +17°C° 0 mm 6 mps 767 mmHg 51%
    11:00 +20°C° 0 mm 6 mps 767 mmHg 45%
    12:00 +21°C° 0 mm 6 mps 767 mmHg 42%
    13:00 +22°C° 0 mm 5 mps 766 mmHg 38%
    14:00 +25°C° 0 mm 4 mps 765 mmHg 35%
    15:00 +23°C° 0 mm 4 mps 765 mmHg 36%
    16:00 +23°C° 0 mm 4 mps 765 mmHg 36%
    17:00 +22°C° 0 mm 4 mps 766 mmHg 37%
    18:00 +22°C° 0 mm 4 mps 766 mmHg 38%
    19:00 +21°C° 0 mm 4 mps 766 mmHg 38%
    20:00 +20°C° 0 mm 5 mps 767 mmHg 39%
    21:00 +20°C° 0 mm 5 mps 767 mmHg 39%
    22:00 +20°C° 0 mm 6 mps 767 mmHg 38%
    23:00 +20°C° 0 mm 6 mps 767 mmHg 37%
    Show more